Hourly Weather Kozlin

Today, 19 January, Tuesday

Time Temperature Precipitation Wind Pressure Humidity
00:00 -7°C° 0.2 mm 3 mps 747 mmHg 96%
01:00 -8°C° 0 mm 4 mps 747 mmHg 95%
02:00 -5°C° 0.4 mm 4 mps 746 mmHg 96%
03:00 -4°C° 0.4 mm 4 mps 746 mmHg 96%
04:00 -3°C° 0.4 mm 4 mps 745 mmHg 97%
05:00 -2°C° 0.5 mm 4 mps 745 mmHg 97%
06:00 -2°C° 0.5 mm 5 mps 745 mmHg 97%
07:00 -1°C° 0.5 mm 5 mps 745 mmHg 97%
08:00 -1°C° 0.2 mm 5 mps 745 mmHg 98%
09:00 -1°C° 0.2 mm 5 mps 745 mmHg 98%
10:00 -1°C° 0.2 mm 4 mps 745 mmHg 98%
11:00 -1°C° 0.1 mm 4 mps 744 mmHg 98%
12:00 -1°C° 0.1 mm 4 mps 744 mmHg 99%
13:00 -1°C° 0.1 mm 4 mps 744 mmHg 99%
14:00 -1°C° 0 mm 4 mps 743 mmHg 97%
15:00 -1°C° 0 mm 4 mps 743 mmHg 95%
16:00 -1°C° 0 mm 4 mps 743 mmHg 92%
17:00 -2°C° 0.2 mm 4 mps 742 mmHg 94%
18:00 -2°C° 0.2 mm 5 mps 742 mmHg 95%
19:00 -3°C° 0.2 mm 6 mps 741 mmHg 97%
20:00 -2°C° 0 mm 5 mps 741 mmHg 96%
21:00 -2°C° 0 mm 5 mps 741 mmHg 95%
22:00 -2°C° 0 mm 5 mps 740 mmHg 94%
23:00 -1°C° 0.5 mm 5 mps 740 mmHg 95%

Tomorrow, 20 January, Wednesday

Time Temperature Precipitation Wind Pressure Humidity
00:00 -1°C° 0.5 mm 5 mps 740 mmHg 96%
01:00 -1°C° 0.5 mm 5 mps 740 mmHg 98%
02:00 -1°C° 0.9 mm 5 mps 740 mmHg 98%
03:00 0°C° 0.9 mm 5 mps 740 mmHg 98%
04:00 0°C° 0.9 mm 5 mps 739 mmHg 99%
05:00 0°C° 0.1 mm 5 mps 740 mmHg 98%
06:00 0°C° 0.1 mm 5 mps 740 mmHg 97%
07:00 0°C° 0.1 mm 5 mps 740 mmHg 97%
08:00 0°C° 0 mm 5 mps 740 mmHg 96%
09:00 0°C° 0 mm 5 mps 740 mmHg 96%
10:00 0°C° 0 mm 5 mps 741 mmHg 95%
11:00 0°C° 0 mm 5 mps 741 mmHg 95%
12:00 0°C° 0 mm 5 mps 740 mmHg 95%
13:00 +1°C° 0 mm 6 mps 740 mmHg 94%
14:00 +1°C° 0 mm 6 mps 740 mmHg 91%
15:00 +1°C° 0 mm 6 mps 740 mmHg 88%
16:00 -1°C° 0 mm 6 mps 740 mmHg 85%
17:00 -1°C° 0 mm 6 mps 740 mmHg 83%
18:00 -1°C° 0 mm 6 mps 740 mmHg 81%
19:00 -1°C° 0 mm 6 mps 740 mmHg 79%
20:00 0°C° 0 mm 5 mps 740 mmHg 78%
21:00 0°C° 0 mm 5 mps 740 mmHg 78%
22:00 0°C° 0 mm 5 mps 740 mmHg 78%
23:00 -1°C° 0 mm 5 mps 740 mmHg 78%

Day after tomorrow, 21 January, Thursday

Time Temperature Precipitation Wind Pressure Humidity
00:00 -1°C° 0 mm 5 mps 740 mmHg 79%
01:00 -1°C° 0 mm 5 mps 740 mmHg 79%
02:00 0°C° 0 mm 5 mps 739 mmHg 81%
03:00 -1°C° 0 mm 6 mps 739 mmHg 82%
04:00 -1°C° 0 mm 6 mps 739 mmHg 84%
05:00 -1°C° 0 mm 6 mps 739 mmHg 84%
06:00 0°C° 0 mm 7 mps 739 mmHg 85%
07:00 0°C° 0 mm 7 mps 739 mmHg 86%
08:00 0°C° 0 mm 7 mps 739 mmHg 87%
09:00 +1°C° 0 mm 6 mps 738 mmHg 88%
10:00 +1°C° 0 mm 6 mps 738 mmHg 89%
11:00 +1°C° 0 mm 6 mps 738 mmHg 91%
12:00 +1°C° 0 mm 5 mps 738 mmHg 92%
13:00 +3°C° 0 mm 4 mps 738 mmHg 93%
14:00 +1°C° 0 mm 4 mps 737 mmHg 92%
15:00 +1°C° 0 mm 4 mps 737 mmHg 92%
16:00 0°C° 0 mm 4 mps 736 mmHg 91%
17:00 0°C° 0 mm 4 mps 736 mmHg 89%
18:00 -1°C° 0 mm 5 mps 736 mmHg 88%
19:00 -1°C° 0 mm 5 mps 736 mmHg 86%
20:00 -1°C° 0 mm 5 mps 736 mmHg 85%
21:00 -1°C° 0 mm 5 mps 736 mmHg 84%
22:00 -1°C° 0 mm 5 mps 736 mmHg 83%
23:00 -1°C° 0 mm 5 mps 736 mmHg 83%

22 January, Friday

Time Temperature Precipitation Wind Pressure Humidity
00:00 0°C° 0 mm 5 mps 735 mmHg 84%
01:00 0°C° 0 mm 5 mps 735 mmHg 85%
02:00 0°C° 0 mm 5 mps 734 mmHg 86%
03:00 0°C° 0 mm 5 mps 733 mmHg 88%
04:00 0°C° 0 mm 4 mps 733 mmHg 89%
05:00 0°C° 0 mm 4 mps 732 mmHg 89%
06:00 +1°C° 0 mm 4 mps 732 mmHg 89%
07:00 +1°C° 0 mm 4 mps 731 mmHg 88%
08:00 +1°C° 0 mm 5 mps 731 mmHg 89%
09:00 +1°C° 0 mm 5 mps 730 mmHg 90%
10:00 +2°C° 0 mm 6 mps 730 mmHg 91%
11:00 +2°C° 0 mm 6 mps 730 mmHg 90%
12:00 +2°C° 0 mm 6 mps 730 mmHg 89%
13:00 +2°C° 0 mm 6 mps 730 mmHg 88%
14:00 +2°C° 0 mm 5 mps 730 mmHg 87%
15:00 +1°C° 0 mm 5 mps 731 mmHg 86%
16:00 +1°C° 0 mm 4 mps 731 mmHg 85%
17:00 +1°C° 0 mm 4 mps 732 mmHg 86%
18:00 0°C° 0 mm 4 mps 733 mmHg 87%
19:00 0°C° 0 mm 4 mps 733 mmHg 88%
20:00 0°C° 0 mm 4 mps 734 mmHg 89%
21:00 +1°C° 0 mm 3 mps 734 mmHg 90%
22:00 +1°C° 0 mm 3 mps 735 mmHg 91%
23:00 0°C° 0.2 mm 3 mps 735 mmHg 91%

23 January, Saturday

Time Temperature Precipitation Wind Pressure Humidity
00:00 +1°C° 0.2 mm 2 mps 736 mmHg 91%
01:00 +1°C° 0.2 mm 2 mps 736 mmHg 91%
02:00 +1°C° 0 mm 2 mps 736 mmHg 91%
03:00 +1°C° 0 mm 2 mps 736 mmHg 90%
04:00 +1°C° 0 mm 2 mps 736 mmHg 90%
05:00 +1°C° 0 mm 2 mps 736 mmHg 90%
06:00 +1°C° 0 mm 2 mps 737 mmHg 90%
07:00 +1°C° 0 mm 2 mps 737 mmHg 90%
08:00 +1°C° 0 mm 2 mps 737 mmHg 90%
09:00 +1°C° 0 mm 2 mps 737 mmHg 90%
10:00 +1°C° 0 mm 2 mps 737 mmHg 90%
11:00 +1°C° 0 mm 3 mps 737 mmHg 90%
12:00 +1°C° 0 mm 3 mps 737 mmHg 90%
13:00 +2°C° 0 mm 3 mps 737 mmHg 89%
14:00 +1°C° 0 mm 3 mps 736 mmHg 90%
15:00 +1°C° 0 mm 3 mps 736 mmHg 91%
16:00 0°C° 0 mm 3 mps 736 mmHg 93%
17:00 -1°C° 0 mm 4 mps 735 mmHg 92%
18:00 -1°C° 0 mm 4 mps 735 mmHg 92%
19:00 -2°C° 0 mm 4 mps 735 mmHg 91%
20:00 -2°C° 0 mm 4 mps 735 mmHg 91%
21:00 -2°C° 0 mm 4 mps 735 mmHg 91%
22:00 -2°C° 0 mm 4 mps 735 mmHg 91%
23:00 -2°C° 0 mm 4 mps 734 mmHg 91%

24 January, Sunday

Time Temperature Precipitation Wind Pressure Humidity
00:00 -1°C° 0 mm 3 mps 734 mmHg 91%
01:00 -1°C° 0 mm 3 mps 733 mmHg 91%
02:00 -1°C° 0 mm 3 mps 733 mmHg 91%
03:00 -1°C° 0 mm 3 mps 732 mmHg 91%
04:00 -2°C° 0 mm 4 mps 732 mmHg 91%
05:00 -1°C° 0 mm 3 mps 731 mmHg 88%
06:00 -1°C° 0 mm 3 mps 731 mmHg 86%
07:00 -1°C° 0 mm 3 mps 731 mmHg 84%
08:00 -1°C° 0 mm 3 mps 731 mmHg 81%
09:00 0°C° 0 mm 3 mps 731 mmHg 78%
10:00 0°C° 0 mm 3 mps 731 mmHg 75%
11:00 +1°C° 0 mm 3 mps 730 mmHg 75%
12:00 +2°C° 0 mm 2 mps 730 mmHg 76%
13:00 +3°C° 0 mm 1 mps 730 mmHg 76%
14:00 +2°C° 0.2 mm 1 mps 730 mmHg 83%
15:00 +1°C° 0.2 mm 2 mps 731 mmHg 90%
16:00 -1°C° 0.2 mm 2 mps 731 mmHg 97%
17:00 -2°C° 0.9 mm 4 mps 731 mmHg 97%
18:00 -2°C° 0.9 mm 5 mps 732 mmHg 97%
19:00 -3°C° 0.9 mm 6 mps 732 mmHg 97%
20:00 -3°C° 0.3 mm 7 mps 733 mmHg 95%
21:00 -3°C° 0.3 mm 7 mps 733 mmHg 92%
22:00 -3°C° 0.3 mm 7 mps 734 mmHg 90%
23:00 -3°C° 0 mm 7 mps 734 mmHg 89%
Show more